This is the latest recevied weather packets stored in our database for station/object NA9VY-8. If no packets are shown the sender has not sent any weather packets the latest 10 day(s).
| Time | Temp. | Humidity | Pressure | Rain* | Wind** | Luminosity | Snow |
|---|---|---|---|---|---|---|---|
| 1777623652 | 8.33° C | 88% | 1018.2 hPa | 0 mm | - | 0 W/m² | - |
| 1777623350 | 8.33° C | 87% | 1018.4 hPa | 0 mm | - | 0 W/m² | - |
| 1777623046 | 8.33° C | 88% | 1018.4 hPa | 0 mm | - | 0 W/m² | - |
| 1777622744 | 8.33° C | 89% | 1018.2 hPa | 0 mm | - | 0 W/m² | - |
| 1777622440 | 8.33° C | 89% | 1018.4 hPa | 0 mm | - | 0 W/m² | - |
| 1777622137 | 8.33° C | 89% | 1018.4 hPa | 0 mm | - | 0 W/m² | - |
| 1777621832 | 8.33° C | 90% | 1018.4 hPa | 0 mm | - | 0 W/m² | - |
| 1777621529 | 8.33° C | 92% | 1018.7 hPa | 0 mm | - | 0 W/m² | - |
| 1777621226 | 8.33° C | 91% | 1018.6 hPa | 0 mm | - | 0 W/m² | - |
| 1777620921 | 8.33° C | 89% | 1018.7 hPa | 0 mm | - | 0 W/m² | - |
| 1777620617 | 8.33° C | 88% | 1018.7 hPa | 0 mm | - | 0 W/m² | - |
| 1777620314 | 7.78° C | 88% | 1018.9 hPa | 0 mm | - | 0 W/m² | - |
| 1777620011 | 7.78° C | 91% | 1019 hPa | 0 mm | - | 0 W/m² | - |
| 1777619708 | 7.78° C | 92% | 1019.2 hPa | 0 mm | - | 0 W/m² | - |
| 1777619408 | 7.78° C | 91% | 1019 hPa | 0 mm | - | 0 W/m² | - |
| 1777619108 | 7.78° C | 90% | 1019.2 hPa | 0 mm | - | 0 W/m² | - |
| 1777618803 | 7.78° C | 90% | 1019.2 hPa | 0 mm | - | 0 W/m² | - |
| 1777618497 | 7.78° C | 90% | 1019.2 hPa | 0 mm | - | 0 W/m² | - |
| 1777618194 | 7.78° C | 89% | 1019.1 hPa | 0 mm | - | 0 W/m² | - |
| 1777617891 | 7.78° C | 90% | 1019.4 hPa | 0 mm | - | 0 W/m² | - |
| 1777617587 | 7.22° C | 94% | 1019.5 hPa | 0 mm | - | 0 W/m² | - |
| 1777617283 | 7.22° C | 94% | 1019.7 hPa | 0 mm | - | 0 W/m² | - |
| 1777616980 | 7.22° C | 95% | 1019.8 hPa | 0 mm | - | 0 W/m² | - |
| 1777616676 | 6.67° C | 96% | 1019.6 hPa | 0 mm | - | 0 W/m² | - |
| 1777616370 | 6.67° C | 97% | 1019.6 hPa | 0 mm | - | 0 W/m² | - |
* Rain latest hour (hover to see other rain measurements)
** Current wind speed in m/s (hover to see current wind gust speed)